📊 Raw Sensor Data

Showing records 52126 to 52150 of 85,267 total

ID Distance (ft) Battery V Battery A Int Temp (°F) Int Humid (%) Ext Temp (°F) Solar V RSSI SNR Time Stamp
33154 14.2 3.77 -5 56 39 56 0.10 -70 8 02/22/2025 10:45 PM
33153 14.2 3.78 -5 57 39 57 0.00 -69 8 02/22/2025 10:30 PM
33152 14.2 3.78 -5 57 39 57 0.10 -69 8 02/22/2025 10:15 PM
33151 14.2 3.82 -5 57 39 57 0.00 -69 8 02/22/2025 10:00 PM
33150 14.2 3.78 -5 57 39 57 0.00 -69 8 02/22/2025 09:45 PM
33149 14.2 3.82 -5 57 39 58 0.00 -69 8 02/22/2025 09:30 PM
33148 14.2 3.82 -5 57 39 58 0.10 -69 8 02/22/2025 09:15 PM
33147 14.2 3.78 -5 58 38 58 0.10 -69 7 02/22/2025 09:00 PM
33146 14.2 3.78 -5 57 39 58 0.10 -69 8 02/22/2025 08:30 PM
33145 14.2 3.78 -5 57 39 57 0.10 -69 8 02/22/2025 08:15 PM
33144 14.2 3.78 -5 57 39 58 0.00 -69 8 02/22/2025 08:00 PM
33143 14.2 3.83 -5 58 39 58 0.00 -71 8 02/22/2025 07:45 PM
33142 14.2 3.83 -5 58 39 59 0.00 -71 7 02/22/2025 07:30 PM
33141 14.2 3.83 -5 58 40 58 0.00 -70 8 02/22/2025 07:15 PM
33140 14.2 3.78 -5 58 40 58 0.00 -71 8 02/22/2025 07:00 PM
33139 14.2 3.78 -5 59 40 59 0.10 -71 7 02/22/2025 06:45 PM
33138 14.2 3.78 -5 59 41 60 0.00 -70 8 02/22/2025 06:30 PM
33137 14.2 3.79 -5 60 41 60 0.00 -71 8 02/22/2025 06:15 PM
33136 14.2 3.79 -5 61 42 60 0.80 -71 7 02/22/2025 06:00 PM
33135 14.2 3.78 -10 62 43 60 2.00 -70 8 02/22/2025 05:45 PM
33134 14.2 3.79 0 64 43 61 4.50 -70 8 02/22/2025 05:30 PM
33133 14.2 3.80 5 66 43 64 4.50 -71 8 02/22/2025 05:15 PM
33132 14.2 3.76 0 70 42 66 4.50 -70 5 02/22/2025 05:00 PM
33131 14.3 3.77 0 75 40 71 5.10 -71 8 02/22/2025 04:45 PM
33130 14.3 3.77 0 75 41 70 5.10 -71 8 02/22/2025 04:30 PM